CEB494 RPLL-RPVE

Flight info

Callsign CEB494
Flight time 0h 38m
Altitude 27000
Route VERDE2R VERDE W24 TAPER TAPER7A
Aircraft A320/M-SDE3FGHIRWY/LB1

Departure

Time 2026-04-30 13:00
Airport Ninoy Aquino International Airport (RPLL)

Arrival

Time 2026-04-30 13:38
Airport Godofredo P. Ramos Airport (RPVE)
Time Latitude Longitude Altitude Speed Heading
2026-04-30 12:09 14.51573 121.01616 50 ft 0 kts 45°
2026-04-30 12:33 14.51568 121.01611 69 ft 2 kts 46°
2026-04-30 12:33 14.51557 121.01599 60 ft 2 kts 46°
2026-04-30 12:33 14.51546 121.01586 59 ft 2 kts 47°
2026-04-30 12:33 14.51534 121.01574 59 ft 2 kts 49°
2026-04-30 12:34 14.51524 121.01561 59 ft 2 kts 53°
2026-04-30 12:34 14.51515 121.01546 59 ft 2 kts 68°
2026-04-30 12:34 14.51514 121.01530 63 ft 2 kts 132°
2026-04-30 12:34 14.51518 121.01526 63 ft 0 kts 137°
2026-04-30 12:39 14.51502 121.01541 65 ft 5 kts 134°
2026-04-30 12:39 14.51469 121.01576 69 ft 10 kts 134°
2026-04-30 12:40 14.51415 121.01581 62 ft 5 kts 204°
2026-04-30 12:40 14.51386 121.01577 69 ft 4 kts 174°
2026-04-30 12:40 14.51357 121.01590 62 ft 7 kts 145°
2026-04-30 12:40 14.51314 121.01632 65 ft 8 kts 134°
2026-04-30 12:41 14.51268 121.01680 65 ft 11 kts 135°
2026-04-30 12:41 14.51212 121.01736 69 ft 12 kts 134°
2026-04-30 12:41 14.51148 121.01803 68 ft 11 kts 135°
2026-04-30 12:41 14.51087 121.01866 64 ft 13 kts 135°
2026-04-30 12:42 14.51049 121.01905 67 ft 0 kts 134°
2026-04-30 12:46 14.51033 121.01917 69 ft 5 kts 152°
2026-04-30 12:46 14.51005 121.01915 68 ft 3 kts 210°
2026-04-30 12:46 14.50993 121.01900 69 ft 2 kts 236°
2026-04-30 12:46 14.50984 121.01886 62 ft 3 kts 238°
2026-04-30 12:47 14.50954 121.01832 63 ft 9 kts 240°
2026-04-30 12:47 14.50924 121.01776 65 ft 9 kts 240°
2026-04-30 12:47 14.50894 121.01723 64 ft 8 kts 239°
2026-04-30 12:47 14.50866 121.01674 63 ft 7 kts 239°
2026-04-30 12:48 14.50843 121.01632 60 ft 6 kts 240°
2026-04-30 12:48 14.50822 121.01595 62 ft 6 kts 240°
2026-04-30 12:48 14.50803 121.01561 66 ft 6 kts 240°
2026-04-30 12:48 14.50766 121.01495 69 ft 15 kts 240°
2026-04-30 12:49 14.50710 121.01394 66 ft 18 kts 240°
2026-04-30 12:49 14.50637 121.01263 69 ft 24 kts 239°
2026-04-30 12:49 14.50569 121.01140 61 ft 17 kts 239°
2026-04-30 12:49 14.50512 121.01039 60 ft 16 kts 239°
2026-04-30 12:50 14.50459 121.00947 63 ft 14 kts 241°
2026-04-30 12:50 14.50414 121.00861 65 ft 13 kts 241°
2026-04-30 12:50 14.50371 121.00781 60 ft 12 kts 238°
2026-04-30 12:50 14.50328 121.00708 68 ft 11 kts 239°
2026-04-30 12:51 14.50291 121.00642 65 ft 10 kts 240°
2026-04-30 12:51 14.50257 121.00580 68 ft 10 kts 240°
2026-04-30 12:51 14.50225 121.00522 62 ft 9 kts 241°
2026-04-30 12:51 14.50197 121.00469 66 ft 8 kts 241°
2026-04-30 12:52 14.50170 121.00421 61 ft 7 kts 239°
2026-04-30 12:52 14.50146 121.00380 64 ft 6 kts 239°
2026-04-30 12:52 14.50126 121.00346 64 ft 5 kts 239°
2026-04-30 12:52 14.50110 121.00316 69 ft 4 kts 240°
2026-04-30 12:53 14.50091 121.00282 64 ft 8 kts 240°
2026-04-30 12:53 14.50056 121.00220 64 ft 11 kts 240°
2026-04-30 12:53 14.50019 121.00153 65 ft 10 kts 240°
2026-04-30 12:53 14.49986 121.00093 67 ft 9 kts 240°
2026-04-30 12:54 14.49957 121.00041 66 ft 8 kts 240°
2026-04-30 12:54 14.49932 120.99995 62 ft 7 kts 240°
2026-04-30 12:54 14.49901 120.99964 65 ft 6 kts 202°
2026-04-30 12:54 14.49872 120.99968 67 ft 0 kts 152°
2026-04-30 12:58 14.49856 120.99977 69 ft 2 kts 152°
2026-04-30 12:58 14.49845 120.99983 67 ft 1 kts 152°
2026-04-30 12:59 14.49826 120.99994 66 ft 5 kts 149°
2026-04-30 12:59 14.49804 121.00038 61 ft 9 kts 83°
2026-04-30 12:59 14.49821 121.00075 66 ft 0 kts 59°
2026-04-30 12:59 14.49943 121.00304 62 ft 77 kts 63°
2026-04-30 13:00 14.50328 121.00985 63 ft 139 kts 60°
2026-04-30 13:00 14.50887 121.01988 203 ft 177 kts 62°
2026-04-30 13:00 14.51533 121.03163 622 ft 200 kts 63°
2026-04-30 13:00 14.52249 121.04433 1233 ft 212 kts 60°
2026-04-30 13:01 14.53004 121.05811 1860 ft 229 kts 62°
2026-04-30 13:01 14.53811 121.07295 2496 ft 246 kts 61°
2026-04-30 13:01 14.54665 121.08867 3290 ft 254 kts 61°
2026-04-30 13:01 14.55540 121.10471 4164 ft 259 kts 61°
2026-04-30 13:02 14.56431 121.12111 5028 ft 265 kts 61°
2026-04-30 13:02 14.57338 121.13789 5903 ft 269 kts 61°
2026-04-30 13:02 14.58244 121.15496 6766 ft 273 kts 61°
2026-04-30 13:02 14.59038 121.17282 7592 ft 277 kts 76°
2026-04-30 13:03 14.59065 121.19260 8466 ft 279 kts 103°
2026-04-30 13:03 14.58228 121.21050 9311 ft 285 kts 128°
2026-04-30 13:03 14.56700 121.22375 10111 ft 292 kts 145°
2026-04-30 13:03 14.54931 121.23522 10594 ft 308 kts 147°
2026-04-30 13:04 14.53046 121.24706 11001 ft 326 kts 147°
2026-04-30 13:04 14.51059 121.25952 11384 ft 342 kts 147°
2026-04-30 13:04 14.48975 121.27207 11955 ft 350 kts 153°
2026-04-30 13:04 14.46621 121.27891 12673 ft 356 kts 173°
2026-04-30 13:05 14.44141 121.27695 13383 ft 362 kts 192°
2026-04-30 13:05 14.41669 121.27051 13998 ft 367 kts 193°
2026-04-30 13:05 14.39192 121.26390 14576 ft 370 kts 193°
2026-04-30 13:06 14.34214 121.25066 15079 ft 361 kts 193°
2026-04-30 13:06 14.31926 121.24461 15807 ft 326 kts 193°
2026-04-30 13:06 14.29840 121.23908 17053 ft 295 kts 192°
2026-04-30 13:06 14.27917 121.23400 18237 ft 278 kts 192°
2026-04-30 13:07 14.26052 121.22913 18904 ft 276 kts 192°
2026-04-30 13:07 14.24187 121.22432 19426 ft 277 kts 192°
2026-04-30 13:07 14.22297 121.21945 19836 ft 285 kts 192°
2026-04-30 13:07 14.20314 121.21433 19945 ft 305 kts 192°
2026-04-30 13:08 14.18175 121.20878 19977 ft 327 kts 192°
2026-04-30 13:08 14.15932 121.20289 20361 ft 331 kts 193°
2026-04-30 13:08 14.13769 121.19717 21468 ft 310 kts 193°
2026-04-30 13:08 14.11727 121.19178 22450 ft 299 kts 193°
2026-04-30 13:09 14.09718 121.18650 23061 ft 299 kts 193°
2026-04-30 13:09 14.07698 121.18121 23544 ft 301 kts 193°
2026-04-30 13:09 14.05653 121.17589 23942 ft 304 kts 193°
2026-04-30 13:09 14.03600 121.17055 24355 ft 306 kts 193°
2026-04-30 13:10 14.01528 121.16517 24752 ft 308 kts 194°
2026-04-30 13:10 13.99440 121.15970 25154 ft 310 kts 194°
2026-04-30 13:10 13.97338 121.15420 25554 ft 313 kts 194°
2026-04-30 13:10 13.95248 121.14871 25945 ft 315 kts 194°
2026-04-30 13:11 13.93118 121.14311 26331 ft 318 kts 194°
2026-04-30 13:11 13.90968 121.13746 26714 ft 320 kts 194°
2026-04-30 13:11 13.88782 121.13174 26939 ft 330 kts 194°
2026-04-30 13:11 13.86509 121.12583 26979 ft 345 kts 194°
2026-04-30 13:12 13.84129 121.11964 26978 ft 361 kts 194°
2026-04-30 13:12 13.81644 121.11316 26976 ft 376 kts 194°
2026-04-30 13:12 13.79049 121.10639 26976 ft 392 kts 194°
2026-04-30 13:13 13.73572 121.09213 26977 ft 419 kts 194°
2026-04-30 13:13 13.70717 121.08473 26975 ft 424 kts 194°
2026-04-30 13:13 13.65033 121.06993 26980 ft 424 kts 194°
2026-04-30 13:14 13.62169 121.06244 26981 ft 424 kts 194°
2026-04-30 13:14 13.60272 121.05748 26982 ft 424 kts 194°
2026-04-30 13:14 13.53541 121.04365 26986 ft 423 kts 181°
2026-04-30 13:15 13.50610 121.04589 26989 ft 424 kts 170°
2026-04-30 13:15 13.46002 121.06294 26991 ft 426 kts 150°
2026-04-30 13:15 13.43533 121.07978 26987 ft 427 kts 146°
2026-04-30 13:16 13.41088 121.09710 26997 ft 427 kts 146°
2026-04-30 13:16 13.38639 121.11438 27003 ft 427 kts 146°
2026-04-30 13:16 13.36182 121.13167 27005 ft 427 kts 146°
2026-04-30 13:17 13.31274 121.16611 27009 ft 427 kts 146°
2026-04-30 13:17 13.28825 121.18324 27008 ft 427 kts 146°
2026-04-30 13:17 13.23911 121.21768 27011 ft 427 kts 146°
2026-04-30 13:18 13.21454 121.23492 27010 ft 427 kts 146°
2026-04-30 13:18 13.16537 121.26939 27013 ft 427 kts 146°
2026-04-30 13:18 13.14109 121.28640 27015 ft 427 kts 146°
2026-04-30 13:19 13.11657 121.30358 27017 ft 427 kts 146°
2026-04-30 13:19 13.09197 121.32079 27023 ft 426 kts 146°
2026-04-30 13:19 13.06752 121.33793 27023 ft 426 kts 146°
2026-04-30 13:19 13.04309 121.35504 27017 ft 425 kts 146°
2026-04-30 13:20 13.01868 121.37213 27016 ft 425 kts 146°
2026-04-30 13:20 12.99431 121.38916 27014 ft 424 kts 146°
2026-04-30 13:20 12.96993 121.40621 27013 ft 424 kts 146°
2026-04-30 13:20 12.94556 121.42325 27011 ft 423 kts 146°
2026-04-30 13:21 12.92128 121.44022 27004 ft 423 kts 146°
2026-04-30 13:21 12.89689 121.45725 26876 ft 425 kts 146°
2026-04-30 13:21 12.87282 121.47405 26249 ft 423 kts 146°
2026-04-30 13:22 12.82464 121.50768 25064 ft 415 kts 145°
2026-04-30 13:22 12.80057 121.52451 24478 ft 412 kts 145°
2026-04-30 13:22 12.75366 121.55732 23365 ft 405 kts 144°
2026-04-30 13:23 12.73082 121.57327 22826 ft 401 kts 144°
2026-04-30 13:23 12.68525 121.60499 21829 ft 391 kts 144°
2026-04-30 13:24 12.64059 121.63611 20841 ft 384 kts 144°
2026-04-30 13:24 12.59684 121.66666 19846 ft 378 kts 144°
2026-04-30 13:25 12.55368 121.69680 18840 ft 374 kts 144°
2026-04-30 13:25 12.51081 121.72669 17759 ft 371 kts 144°
2026-04-30 13:26 12.44747 121.77071 16230 ft 363 kts 144°
2026-04-30 13:26 12.40587 121.79958 15238 ft 359 kts 144°
2026-04-30 13:27 12.36022 121.81932 14236 ft 362 kts 169°
2026-04-30 13:28 12.28570 121.80991 12615 ft 362 kts 190°
2026-04-30 13:28 12.23681 121.79937 11530 ft 357 kts 189°
2026-04-30 13:28 12.21258 121.79418 10994 ft 354 kts 189°
2026-04-30 13:29 12.19505 121.79040 10596 ft 353 kts 189°
2026-04-30 13:29 12.15123 121.78093 10137 ft 331 kts 189°
2026-04-30 13:30 12.08829 121.76726 9378 ft 298 kts 189°
2026-04-30 13:31 12.04787 121.75857 8579 ft 295 kts 189°
2026-04-30 13:31 11.98832 121.74576 7365 ft 292 kts 188°
2026-04-30 13:32 11.94878 121.73723 6550 ft 289 kts 189°
2026-04-30 13:32 11.90967 121.73307 5725 ft 277 kts 166°
2026-04-30 13:33 11.87581 121.74746 4947 ft 251 kts 148°
2026-04-30 13:33 11.84691 121.76370 4233 ft 221 kts 128°
2026-04-30 13:34 11.84024 121.77660 3937 ft 199 kts 94°
2026-04-30 13:34 11.85663 121.81308 3164 ft 175 kts 64°
2026-04-30 13:35 11.86180 121.82434 2943 ft 175 kts 65°
2026-04-30 13:35 11.87179 121.84618 2559 ft 156 kts 65°
2026-04-30 13:36 11.88064 121.86483 2322 ft 141 kts 64°
2026-04-30 13:36 11.88495 121.87370 2316 ft 142 kts 64°
2026-04-30 13:36 11.89383 121.89181 2139 ft 144 kts 65°
2026-04-30 13:37 11.89840 121.90121 1637 ft 154 kts 64°
2026-04-30 13:37 11.90845 121.92239 613 ft 165 kts 64°
2026-04-30 13:38 11.91788 121.94048 302 ft 139 kts 65°
2026-04-30 13:38 11.92217 121.94921 98 ft 138 kts 65°
2026-04-30 13:38 11.92900 121.96288 32 ft 45 kts 64°
2026-04-30 13:39 11.92928 121.96472 36 ft 4 kts 144°
2026-04-30 13:39 11.92912 121.96483 39 ft 0 kts 149°
2026-04-30 13:40 11.92903 121.96488 39 ft 6 kts 149°
2026-04-30 13:40 11.92869 121.96507 41 ft 3 kts 153°
2026-04-30 13:40 11.92857 121.96512 42 ft 1 kts 153°
2026-04-30 13:40 11.92855 121.96514 42 ft 3 kts 153°
2026-04-30 13:41 11.92808 121.96525 42 ft 7 kts 197°
2026-04-30 13:41 11.92780 121.96491 42 ft 6 kts 242°
2026-04-30 13:41 11.92762 121.96455 42 ft 6 kts 243°
2026-04-30 13:41 11.92750 121.96432 42 ft 2 kts 243°
2026-04-30 13:42 11.92743 121.96417 41 ft 4 kts 243°
2026-04-30 13:42 11.92731 121.96396 42 ft 2 kts 227°
2026-04-30 13:42 11.92704 121.96400 42 ft 2 kts 156°
2026-04-30 13:43 11.92702 121.96401 42 ft 0 kts 156°
2026-04-30 13:47 11.91624 121.93716 317 ft 138 kts 62°
2026-04-30 13:47 11.91414 121.93323 482 ft 151 kts 60°